Location: Bay Ridge
(40.6340°N, 74.0146°W)
Time: 10:23:46
(UTC+00:00)

Cosmos 1825 - Pass Details

Date: 15 November 2019
Orbit: 504 x 508 km, 82.5° (Epoch: 12 December)

Event Time Altitude Azimuth Distance (km) Brightness Sun altitude
Rises 11:09:36 0° 204° (SSW) 2,590 5.7 -6.6°
Reaches altitude 10° 11:11:48 10° 212° (SSW) 1,711 4.7 -6.2°
Maximum altitude 11:15:19 38° 282° (WNW) 791 2.7 -5.6°
Drops below altitude 10° 11:18:51 10° 351° (N) 1,725 4.6 -5.0°
Sets 11:21:06 0° 360° (N) 2,615 5.6 -4.6°
